This is the latest recevied weather packets stored in our database for station/object HS5MOA-13. If no packets are shown the sender has not sent any weather packets the latest 10 day(s).
| Time | Temp. | Humidity | Pressure | Rain* | Wind** | Luminosity | Snow |
|---|---|---|---|---|---|---|---|
| 1787904805 | 36.11° C | 5% | 973.2 hPa | 0 mm | - | - | - |
| 1787904194 | 36.67° C | 5% | 973.3 hPa | 0 mm | - | - | - |
| 1787903582 | 36.67° C | 5% | 973.5 hPa | 0 mm | - | - | - |
| 1787902971 | 37.22° C | 5% | 973.6 hPa | 0 mm | - | - | - |
| 1787902359 | 36.67° C | 5% | 973.8 hPa | 0 mm | - | - | - |
| 1787901748 | 37.22° C | 5% | 973.8 hPa | 0 mm | - | - | - |
| 1787901136 | 37.78° C | 5% | 973.9 hPa | 0 mm | - | - | - |
| 1787900526 | 37.22° C | 5% | 974 hPa | 0 mm | - | - | - |
| 1787899913 | 36.11° C | 5% | 974.2 hPa | 0 mm | - | - | - |
| 1787899301 | 36.67° C | 5% | 974.4 hPa | 0 mm | - | - | - |
| 1787898690 | 36.67° C | 5% | 974.5 hPa | 0 mm | - | - | - |
| 1787898078 | 36.67° C | 5% | 974.8 hPa | 0 mm | - | - | - |
| 1787897467 | 35.56° C | 5% | 974.9 hPa | 0 mm | - | - | - |
| 1787896855 | 35° C | 5% | 975.2 hPa | 0 mm | - | - | - |
| 1787896244 | 34.44° C | 5% | 975.4 hPa | 0 mm | - | - | - |
| 1787895632 | 34.44° C | 5% | 975.6 hPa | 0 mm | - | - | - |
| 1787895021 | 33.89° C | 5% | 975.8 hPa | 0 mm | - | - | - |
| 1787894413 | 33.89° C | 5% | 976.1 hPa | 0 mm | - | - | - |
| 1787893797 | 33.89° C | 5% | 976.3 hPa | 0 mm | - | - | - |
| 1787893186 | 33.89° C | 5% | 976.3 hPa | 0 mm | - | - | - |
| 1787892574 | 34.44° C | 5% | 976.4 hPa | 0 mm | - | - | - |
| 1787891963 | 34.44° C | 5% | 976.3 hPa | 0 mm | - | - | - |
| 1787891351 | 34.44° C | 5% | 976.4 hPa | 0 mm | - | - | - |
| 1787890739 | 34.44° C | 5% | 976.5 hPa | 0 mm | - | - | - |
| 1787890128 | 33.89° C | 5% | 976.7 hPa | 0 mm | - | - | - |
* Rain latest hour (hover to see other rain measurements)
** Current wind speed in m/s (hover to see current wind gust speed)